LERTLEMG [41928]

Details From LERT - Rota Ns
To LEMG - Malaga
Flight Number 41928
Tags Multipart Commercial Generated
Created
Modified
Stats Distance 90 nm / 166 km
Max Altitude 0 ft / 0 m
Waypoints 2
Social Downloads 52
Likes 1
Share VATSIM

Download

Looking for another format? Having issues loading an existing format? Contact us
Advertisement - Login to hide

Notes

Generated

Route

LERT LEMG

ID Type Via Altitude Latitude Longitude Leg Dist Tot Dist Heading (true) Name
O LERT APT - 0 ft / 0 m 36.64721˚ -6.36996˚ - 0 nm - -
O LEMG APT - 0 ft / 0 m 36.68453˚ -4.51259˚ 89 nm 89 nm 88° / 89° -

Altitude Profile

Advertisement - Login to hide

LERT

Details ICAO LERT
Name Rota Ns
Region Spain
Timezone Europe/Madrid (UTC+2.0)
Stats Elevation 86 ft / 26 m (AMSL)
Location 36.645212° -6.349479°
Runways 1
Magnetic Variation 1.374° W

METAR

LERT 211700Z 25012KT 210V280 9999 BKN014 18/14 Q1013 NOSIG

Decode

TAF

Not found

Departure Runways

ID Width Length Bearing (true) Bearing (mag) Surface Threshold Offset Overrun Length
10 200 ft / 61 m 12,080 ft / 3,682 m 96.91° 98.28° Asphalt 0 ft / 0 m 148 ft / 45 m
28 200 ft / 61 m 12,080 ft / 3,682 m 276.93° 278.30° Asphalt 0 ft / 0 m 148 ft / 45 m

LEMG

Details ICAO LEMG (AGP)
Name Malaga
Region Spain
Timezone Europe/Madrid (UTC+2.0)
Stats Elevation 52 ft / 16 m (AMSL)
Location 36.679780° -4.495899°
Runways 2
Magnetic Variation 0.828° W

METAR

LEMG 211700Z 29003KT 250V320 9999 SCT070 20/16 Q1013 NOSIG

Decode

TAF

TAF LEMG 211100Z 2112/2212 15010KT 9999 FEW040 TX23/2212Z TN13/2206Z PROB30 TEMPO 2112/2120 4000 SHRA FEW030CB BECMG 2118/2120 29006KT BECMG 2208/2210 14008KT

Decode

Destination Runways

ID Width Length Bearing (true) Bearing (mag) Surface Threshold Offset Overrun Length
12 148 ft / 45 m 10,057 ft / 3,065 m 117.76° 118.59° Asphalt 0 ft / 0 m 650 ft / 198 m
13 148 ft / 45 m 10,509 ft / 3,203 m 131.69° 132.52° Asphalt 0 ft / 0 m 246 ft / 75 m
30 148 ft / 45 m 10,057 ft / 3,065 m 297.78° 298.61° Asphalt 1,115 ft / 340 m 466 ft / 142 m
31 148 ft / 45 m 10,509 ft / 3,203 m 311.70° 312.53° Asphalt 0 ft / 0 m 246 ft / 75 m

Approach Navaids

Runway Type Ident Frequency Range Bearing (true) Bearing (mag) Slope Elevation
12 Localiser IMG 110.55 MHz 15 nm / 28 km 117.70° 118.53° - 52 ft / 16 m (AMSL)
12 Glidescope IMG 110.55 MHz 8 nm / 15 km 0.00° 0.83° 3.00° 52 ft / 16 m (AMSL)
12 DME IMG 110.55 MHz 18 nm / 33 km - - - 52 ft / 16 m (AMSL)
13 Localiser GMM 109.50 MHz 18 nm / 33 km 131.70° 132.53° - 52 ft / 16 m (AMSL)
13 Glidescope GMM 109.50 MHz 10 nm / 19 km 131.69° 132.52° 3.20° 69 ft / 21 m (AMSL)
13 DME GMM 109.50 MHz 18 nm / 33 km - - - 69 ft / 21 m (AMSL)
31 Localiser GAA 109.90 MHz 18 nm / 33 km 311.68° 312.51° - 52 ft / 16 m (AMSL)
31 Glidescope GAA 109.90 MHz 10 nm / 19 km 311.69° 312.52° 3.00° 56 ft / 17 m (AMSL)
31 DME GAA 109.90 MHz 18 nm / 33 km - - - 56 ft / 17 m (AMSL)

Popular Alternatives